Content
SEND FEEDBACK

Daily
Averages
Monthly
Summary
United States of America

WAHWEAP, ARIZONA


Home > North America > United States > Arizona
Elevation: 3703 feet     Latitude: 36 59N     Longitude: 111 29W

WEATHER
 
SELECT A DAY
Number of Records: 198,470;   Date Range: 1/1/95 - 12/20/14
 
SHARE

PRINT THIS DATA

[ ← Previous Day ]
WEATHER ALMANAC - JANUARY 14, 2013
[ Next Day → ]
[ °C ]   °F
Weather ElementAverageHighLow
Temperature19.9 °F26.1 °F (2:53 pm)12.9 °F (7:53 am)
Dewpoint-4.8 °F-0.9 °F (2:53 am)-7.1 °F (2:53 pm)
Humidity34.2 %45 % (7:53 am)23 % (2:53 pm)
Barometer30.25 in30.36 in (11:53 pm)30.13 in (1:53 am)
Wind Speed3.5 mph6.9 mph (12:53 pm)
Weather ElementAverage
Visibility9.9 mi
Wind DirectionSSW (185.7 °)

Weather ElementTotal
Precipitation---
Heating Degree Days45.5 (Base 65)
Averaged from 23 records on January 14, 2013
WEATHER CONDITIONS BREAKOUT
WIND DIRECTION BREAKOUT
WEATHER BY HOUR - JANUARY 14, 2013
[ °C ]   °F
Local TimeTemperatureDewpointHumidityBarometerVisibilityWind DirectionWind SpeedGust SpeedPrecipitationEventsConditions
1:53 AM21.0 °F-2.0 °F36 %30.13 in10.0 miNorth (360°)5.8 mphMostly Cloudy
2:53 AM19.0 °F-0.9 °F42 %30.15 in10.0 miWNW (290°)3.5 mphClear
3:53 AM17.1 °F-2.0 °F43 %30.16 in10.0 miWNW (290°)3.5 mphClear
4:53 AM16.0 °F-4.0 °F41 %30.17 in10.0 miWNW (290°)4.6 mphClear
5:53 AM15.1 °F-5.1 °F41 %30.19 in10.0 miWest (280°)3.5 mphClear
6:53 AM15.1 °F-5.1 °F41 %30.21 in10.0 miCalmClear
7:53 AM12.9 °F-5.1 °F45 %30.24 in9.0 miCalmClear
8:53 AM16.0 °F-5.1 °F39 %30.26 in10.0 miWest (270°)3.5 mphClear
9:53 AM18.0 °F-5.1 °F36 %30.26 in10.0 miWest (270°)4.6 mphClear
10:53 AM19.9 °F-5.1 °F33 %30.25 in10.0 miNNW (340°)5.8 mphClear
11:53 AM21.9 °F-4.0 °F32 %30.23 in10.0 miNorth (10°)3.5 mphClear
12:53 PM24.1 °F-4.0 °F29 %30.22 in10.0 miNNW (340°)6.9 mphClear
1:53 PM25.0 °F-6.0 °F26 %30.21 in10.0 miVariable3.5 mphClear
2:53 PM26.1 °F-7.1 °F23 %30.21 in10.0 miCalmClear
3:53 PM25.0 °F-7.1 °F24 %30.24 in10.0 miVariable3.5 mphClear
4:53 PM26.1 °F-7.1 °F23 %30.26 in10.0 miCalmClear
5:53 PM23.0 °F-7.1 °F27 %30.29 in10.0 miSE (130°)3.5 mphClear
6:53 PM21.9 °F-7.1 °F28 %30.31 in9.0 miCalmClear
7:53 PM21.0 °F-4.0 °F33 %30.34 in10.0 miWest (270°)5.8 mphClear
8:53 PM19.9 °F-4.0 °F35 %30.34 in10.0 miWest (270°)4.6 mphClear
9:53 PM19.0 °F-4.0 °F36 %30.34 in10.0 miWNW (290°)4.6 mphClear
10:53 PM18.0 °F-5.1 °F36 %30.35 in10.0 miWest (280°)5.8 mphClear
11:53 PM17.1 °F-5.1 °F37 %30.36 in10.0 miWNW (290°)4.6 mphClear
Hourly data recorded from KPGA, located miles away from Wahweap, Arizona







STORIES FROM OUR PARTNERS